Location: Keppel Henge
(44.7900°N, 80.9447°W)
Time: 23:36:10
(UTC-05:00)

Vanguard 2 - Visible Passes

Search period start: 14 December 2017 00:00
Search period end: 24 December 2017 00:00
Orbit: 553 x 2939 km, 32.9° (Epoch: 14 December)

Date Brightness Start Highest point End Pass type
(mag) Time Alt. Az. Time Alt. Az. Time Alt. Az.
14 Dec 9.4 18:34:18 10° SW 18:37:27 17° SSW 18:40:10 10° SSE visible
15 Dec 9.5 18:52:40 10° SW 18:55:12 14° SSW 18:57:29 10° SSE visible
16 Dec 9.8 19:11:42 10° SW 19:12:54 11° SSW 19:14:03 10° S visible
17 Dec 9.7 17:18:23 10° WSW 17:23:28 23° SSW 17:27:16 10° SE visible
18 Dec 9.7 17:36:34 10° WSW 17:41:13 21° SSW 17:44:48 10° SSE visible
19 Dec 9.9 17:54:58 10° WSW 17:58:55 17° SSW 18:02:05 10° SSE visible
20 Dec 10.1 18:13:46 10° WSW 18:16:32 13° SSW 18:18:53 10° S visible
